Location: Le Vaud
(46.4779°N, 6.2346°E)
Time: 04:12:35
(UTC+00:00)

NOSS 2-1 (E) - Pass Details

Date: 18 February 2020
Orbit: 450 x 1753 km, 63.3° (Epoch: 27 March)

Event Time Altitude Azimuth Distance (km) Brightness Sun altitude
Exits shadow 04:17:37 35° 22° (NNE) 792 4.3 -24.2°
Drops below altitude 10° 04:20:03 10° 35° (NE) 1,758 6.4 -23.8°
Sets 04:22:27 0° 38° (NE) 2,779 7.6 -23.4°
